Retour au catalogue

DELTA 1 DEB

ActifSSO
NORAD 26835·DEBRIS·🇺🇸 United States

Lancé Jun 12, 1975 depuis Vandenberg Space Force Base

Loading…

Prochains Passages (prochaines 24 heures)

TLE

FraisSource: Space-Track

Époque: Sep 14, 2026, 13:31 UTC

1 26835U 75052KP  26257.56355575  .00001122  00000-0  11065-2 0  9997
2 26835  99.6923 111.5878 0039447 273.8699 104.3960 13.80698745732899

Suivez DELTA 1 DEB en temps réel avec AllMySat

Download on the App Store